Tracking 19146 objects as of 24-Apr-2018
HD Live streaming from Space Station
objects crossing your sky now

IRIDIUM 145

Track IRIDIUM 145 now!
10-day predictions
IRIDIUM 145 is classified as:


NORAD ID: 43253
Int'l Code: 2018-030G
Perigee: 784.1 km
Apogee: 785.5 km
Inclination: 86.4 °
Period: 100.4 minutes
Semi major axis: 7155 km
RCS: Unknown
Launch date: March 30, 2018
Source: United States (US)
Launch site: AIR FORCE WESTERN TEST RANGE (AFWTR)
aabbcc
Your satellite tracking list
Your tracking list is empty




NASA's NSSDC Master Catalog

Two Line Element Set (TLE):
1 43253U 18030E   18114.49543959 +.00000040 +00000-0 +73375-5 0  9996
2 43253 086.3939 093.9774 0000942 138.0894 222.0374 14.34219433003618
Source of the keplerian elements: AFSPC